RYR9768 EGGW-EPWR

Flight info

Callsign RYR9768
Flight time N/A
Altitude 37000
Route MATCH Q295 BRAIN M197 REDFA L620 TACHA DCT OSNAD L980 HLZ DCT GILAS DCT ELSUP DCT BAREP DCT KELOD L980 ADVAB L617 XIDNA
Aircraft B738/M-SDE2E3FGHIRWXY/LB1

Departure

Time N/A
Airport London Luton Airport (EGGW)

Arrival

Time 2026-04-30 19:32
Airport Copernicus Wrocław Airport (EPWR)
Time Latitude Longitude Altitude Speed Heading
2026-04-30 17:39 51.76799 0.11378 10950 ft 327 kts 86°
2026-04-30 17:41 51.79273 0.42065 16186 ft 359 kts 85°
2026-04-30 17:42 51.79917 0.50154 17464 ft 367 kts 85°
2026-04-30 17:42 51.80901 0.62640 19271 ft 378 kts 85°
2026-04-30 17:43 51.81920 0.71053 20459 ft 385 kts 78°
2026-04-30 17:44 51.83942 0.83607 22114 ft 393 kts 77°
2026-04-30 17:44 51.86291 0.96472 23767 ft 401 kts 76°
2026-04-30 17:46 51.90287 1.18399 25880 ft 413 kts 76°
2026-04-30 17:47 51.93517 1.36496 27432 ft 423 kts 77°
2026-04-30 17:48 51.96790 1.55014 28872 ft 432 kts 77°
2026-04-30 17:48 51.99259 1.69120 29867 ft 438 kts 77°
2026-04-30 17:49 52.02203 1.88483 31007 ft 443 kts 83°
2026-04-30 17:50 52.03645 2.08155 32504 ft 436 kts 86°
2026-04-30 17:51 52.04675 2.22796 33558 ft 433 kts 85°
2026-04-30 17:52 52.05730 2.37332 34477 ft 431 kts 85°
2026-04-30 17:53 52.07459 2.61534 35648 ft 431 kts 85°
2026-04-30 17:54 52.08798 2.80823 36546 ft 430 kts 85°
2026-04-30 17:55 52.10108 3.00150 37259 ft 432 kts 85°
2026-04-30 17:56 52.11409 3.19861 37277 ft 442 kts 85°
2026-04-30 17:58 52.13319 3.49722 37275 ft 442 kts 85°
2026-04-30 18:00 52.15726 3.89207 37275 ft 434 kts 86°
2026-04-30 18:01 52.17143 4.13568 37291 ft 430 kts 86°
2026-04-30 18:02 52.18763 4.42571 37293 ft 430 kts 86°
2026-04-30 18:04 52.20324 4.71803 37324 ft 432 kts 86°
2026-04-30 18:06 52.22218 5.09287 37325 ft 434 kts 86°
2026-04-30 18:08 52.23840 5.43455 37319 ft 427 kts 86°
2026-04-30 18:10 52.25575 5.82597 37330 ft 438 kts 86°
2026-04-30 18:11 52.27000 6.17213 37335 ft 431 kts 86°
2026-04-30 18:13 52.27943 6.41581 37369 ft 430 kts 86°
2026-04-30 18:14 52.28842 6.66129 37368 ft 438 kts 86°
2026-04-30 18:15 52.29860 6.95861 37351 ft 432 kts 86°
2026-04-30 18:16 52.30486 7.15288 37370 ft 426 kts 86°
2026-04-30 18:17 52.30785 7.24940 37377 ft 430 kts 86°
2026-04-30 18:18 52.31229 7.39745 37377 ft 438 kts 86°
2026-04-30 18:18 52.31517 7.49713 37377 ft 440 kts 86°
2026-04-30 18:19 52.31797 7.59720 37374 ft 441 kts 86°
2026-04-30 18:19 52.32068 7.69719 37370 ft 440 kts 86°
2026-04-30 18:20 52.32331 7.79707 37375 ft 439 kts 86°
2026-04-30 18:20 52.32585 7.89662 37375 ft 437 kts 86°
2026-04-30 18:21 52.32829 7.99572 37374 ft 435 kts 86°
2026-04-30 18:21 52.33064 8.09452 37383 ft 434 kts 86°
2026-04-30 18:22 52.33288 8.19219 37389 ft 432 kts 86°
2026-04-30 18:22 52.33611 8.33930 37390 ft 431 kts 86°
2026-04-30 18:23 52.33815 8.43706 37388 ft 430 kts 86°
2026-04-30 18:23 52.34012 8.53494 37392 ft 430 kts 86°
2026-04-30 18:24 52.34292 8.68189 37399 ft 431 kts 86°
2026-04-30 18:25 52.34469 8.78010 37402 ft 432 kts 86°
2026-04-30 18:25 52.34720 8.92786 37404 ft 434 kts 86°
2026-04-30 18:26 52.34952 9.07578 37408 ft 435 kts 86°
2026-04-30 18:27 52.35167 9.22452 37403 ft 436 kts 86°
2026-04-30 18:28 52.35363 9.37279 37399 ft 436 kts 86°
2026-04-30 18:28 52.35540 9.52145 37401 ft 435 kts 86°
2026-04-30 18:29 52.35748 9.71912 37426 ft 434 kts 86°
2026-04-30 18:30 52.35921 9.91611 37428 ft 432 kts 86°
2026-04-30 18:31 52.36030 10.06335 37425 ft 431 kts 86°
2026-04-30 18:32 52.36120 10.21031 37426 ft 431 kts 86°
2026-04-30 18:33 52.36192 10.35721 37432 ft 430 kts 86°
2026-04-30 18:33 52.36246 10.50436 37430 ft 431 kts 86°
2026-04-30 18:34 52.36282 10.65161 37433 ft 432 kts 86°
2026-04-30 18:35 52.36297 10.74933 37431 ft 432 kts 86°
2026-04-30 18:35 52.36626 10.84625 37434 ft 429 kts 79°
2026-04-30 18:36 52.37951 10.99101 37430 ft 429 kts 78°
2026-04-30 18:37 52.39256 11.13605 37431 ft 429 kts 78°
2026-04-30 18:37 52.40084 11.23276 37431 ft 429 kts 78°
2026-04-30 18:38 52.40897 11.32957 37434 ft 428 kts 78°
2026-04-30 18:38 52.41695 11.42557 37431 ft 428 kts 78°
2026-04-30 18:39 52.42489 11.52198 37432 ft 427 kts 78°
2026-04-30 18:39 52.43276 11.61849 37430 ft 426 kts 78°
2026-04-30 18:40 52.44052 11.71468 37428 ft 425 kts 78°
2026-04-30 18:40 52.44820 11.81084 37431 ft 425 kts 78°
2026-04-30 18:41 52.45580 11.90698 37430 ft 424 kts 78°
2026-04-30 18:41 52.46325 12.00232 37428 ft 424 kts 78°
2026-04-30 18:42 52.47067 12.09821 37432 ft 424 kts 79°
2026-04-30 18:42 52.48166 12.24211 37429 ft 423 kts 79°
2026-04-30 18:45 52.52043 12.77032 37427 ft 423 kts 79°
2026-04-30 18:46 52.52717 12.86569 37426 ft 423 kts 79°
2026-04-30 18:46 52.53387 12.96160 37425 ft 423 kts 79°
2026-04-30 18:47 52.54050 13.05763 37423 ft 423 kts 79°
2026-04-30 18:47 52.54704 13.15351 37415 ft 422 kts 79°
2026-04-30 18:48 52.55351 13.24949 37410 ft 422 kts 79°
2026-04-30 18:48 52.55989 13.34532 37407 ft 421 kts 79°
2026-04-30 18:49 52.56618 13.44109 37407 ft 421 kts 79°
2026-04-30 18:49 52.57234 13.53604 37411 ft 420 kts 79°
2026-04-30 18:50 52.57847 13.63155 37410 ft 420 kts 79°
2026-04-30 18:50 52.58451 13.72706 37410 ft 419 kts 79°
2026-04-30 18:51 52.59046 13.82244 37411 ft 419 kts 79°
2026-04-30 18:51 52.59634 13.91775 37407 ft 418 kts 79°
2026-04-30 18:52 52.60212 14.01289 37416 ft 418 kts 79°
2026-04-30 18:52 52.60783 14.10799 37414 ft 418 kts 79°
2026-04-30 18:53 52.61345 14.20300 37406 ft 417 kts 79°
2026-04-30 18:53 52.61807 14.28201 37408 ft 417 kts 79°
2026-04-30 18:54 52.62356 14.37707 37412 ft 416 kts 79°
2026-04-30 18:54 52.62897 14.47190 37413 ft 416 kts 79°
2026-04-30 18:55 52.62870 14.56770 37407 ft 426 kts 92°
2026-04-30 18:55 52.61355 14.71187 37418 ft 426 kts 94°
2026-04-30 18:56 52.59851 14.85540 37413 ft 426 kts 93°
2026-04-30 18:57 52.58360 14.99946 37415 ft 426 kts 93°
2026-04-30 18:57 52.57357 15.09530 37402 ft 420 kts 93°
2026-04-30 18:58 52.56376 15.18809 37416 ft 407 kts 93°
2026-04-30 18:58 52.55900 15.23329 37424 ft 406 kts 93°
2026-04-30 18:58 52.55415 15.27914 37250 ft 408 kts 93°
2026-04-30 18:59 52.53935 15.36877 36559 ft 416 kts 114°
2026-04-30 19:00 52.47235 15.45197 35546 ft 441 kts 154°
2026-04-30 19:00 52.44323 15.46795 35118 ft 441 kts 155°
2026-04-30 19:00 52.38525 15.49921 34359 ft 435 kts 154°
2026-04-30 19:01 52.32875 15.53116 33554 ft 432 kts 153°
2026-04-30 19:01 52.30153 15.55190 33182 ft 432 kts 136°
2026-04-30 19:02 52.26482 15.62642 32464 ft 417 kts 103°
2026-04-30 19:02 52.25263 15.71549 31683 ft 397 kts 91°
2026-04-30 19:03 52.24322 15.80368 30898 ft 392 kts 92°
2026-04-30 19:03 52.23311 15.89068 30079 ft 388 kts 93°
2026-04-30 19:04 52.22270 15.97654 29245 ft 383 kts 93°
2026-04-30 19:04 52.21235 16.06113 28435 ft 378 kts 93°
2026-04-30 19:05 52.20209 16.14547 27661 ft 384 kts 93°
2026-04-30 19:05 52.19153 16.23126 26867 ft 382 kts 93°
2026-04-30 19:06 52.18183 16.31133 26149 ft 378 kts 93°
2026-04-30 19:06 52.17674 16.35393 25776 ft 386 kts 93°
2026-04-30 19:06 52.16630 16.44027 24950 ft 386 kts 94°
2026-04-30 19:07 52.15589 16.52522 24138 ft 379 kts 94°
2026-04-30 19:07 52.15081 16.56668 23702 ft 377 kts 94°
2026-04-30 19:08 52.14056 16.64973 22841 ft 371 kts 94°
2026-04-30 19:08 52.11607 16.72498 22063 ft 395 kts 128°
2026-04-30 19:08 52.09367 16.75187 21769 ft 410 kts 147°
2026-04-30 19:09 52.03996 16.78718 21006 ft 417 kts 153°
2026-04-30 19:09 52.01286 16.80334 20611 ft 413 kts 154°
2026-04-30 19:09 51.98605 16.81943 20217 ft 409 kts 153°
2026-04-30 19:10 51.93341 16.85182 19449 ft 401 kts 153°
2026-04-30 19:10 51.88229 16.88380 18676 ft 383 kts 153°
2026-04-30 19:11 51.85785 16.89912 18261 ft 370 kts 153°
2026-04-30 19:11 51.81130 16.92830 17531 ft 347 kts 153°
2026-04-30 19:11 51.78913 16.94220 17202 ft 337 kts 153°
2026-04-30 19:12 51.76746 16.95580 16884 ft 331 kts 153°
2026-04-30 19:12 51.74636 16.96903 16578 ft 328 kts 153°
2026-04-30 19:12 51.72513 16.98230 16272 ft 328 kts 153°
2026-04-30 19:13 51.68228 17.00874 15756 ft 330 kts 154°
2026-04-30 19:13 51.63873 17.03447 15148 ft 336 kts 155°
2026-04-30 19:13 51.61680 17.04735 14816 ft 333 kts 155°
2026-04-30 19:14 51.59526 17.05999 14482 ft 327 kts 155°
2026-04-30 19:14 51.57406 17.07245 14158 ft 321 kts 155°
2026-04-30 19:14 51.55321 17.08471 13806 ft 317 kts 155°
2026-04-30 19:14 51.53267 17.09680 13472 ft 312 kts 155°
2026-04-30 19:15 51.51251 17.10867 13157 ft 306 kts 155°
2026-04-30 19:15 51.47301 17.13192 12472 ft 302 kts 155°
2026-04-30 19:15 51.45329 17.14351 12126 ft 300 kts 155°
2026-04-30 19:16 51.43378 17.15494 11808 ft 297 kts 155°
2026-04-30 19:16 51.41442 17.16627 11507 ft 295 kts 155°
2026-04-30 19:16 51.37627 17.18863 10936 ft 292 kts 155°
2026-04-30 19:17 51.35697 17.19993 10657 ft 291 kts 155°
2026-04-30 19:17 51.31968 17.22173 10245 ft 286 kts 155°
2026-04-30 19:17 51.30090 17.23273 9947 ft 288 kts 155°
2026-04-30 19:18 51.26923 17.25123 9449 ft 290 kts 156°
2026-04-30 19:18 51.24413 17.26586 9051 ft 289 kts 156°
2026-04-30 19:18 51.22540 17.27675 8755 ft 284 kts 156°
2026-04-30 19:19 51.20696 17.28746 8490 ft 280 kts 156°
2026-04-30 19:19 51.18858 17.29815 8405 ft 283 kts 156°
2026-04-30 19:19 51.15049 17.32032 7343 ft 293 kts 156°
2026-04-30 19:20 51.13182 17.33111 7174 ft 278 kts 156°
2026-04-30 19:20 51.11381 17.34065 7034 ft 265 kts 160°
2026-04-30 19:20 51.07978 17.35601 7036 ft 250 kts 159°
2026-04-30 19:21 51.06479 17.36894 7004 ft 243 kts 130°
2026-04-30 19:21 51.04620 17.41288 6998 ft 239 kts 116°
2026-04-30 19:22 51.02646 17.45513 6982 ft 247 kts 143°
2026-04-30 19:22 50.97665 17.44629 6999 ft 259 kts 205°
2026-04-30 19:23 50.92799 17.40852 6175 ft 251 kts 207°
2026-04-30 19:24 50.90985 17.36734 5517 ft 227 kts 272°
2026-04-30 19:24 50.91357 17.34440 5290 ft 208 kts 308°
2026-04-30 19:24 50.93441 17.31481 4901 ft 198 kts 325°
2026-04-30 19:25 50.96605 17.27593 4440 ft 191 kts 326°
2026-04-30 19:26 50.98713 17.24992 4181 ft 193 kts 317°
2026-04-30 19:26 51.00189 17.21389 4000 ft 193 kts 304°
2026-04-30 19:26 51.00831 17.19532 4002 ft 192 kts 301°
2026-04-30 19:27 51.02029 17.15682 3963 ft 196 kts 300°
2026-04-30 19:27 51.03213 17.11773 3466 ft 192 kts 299°
2026-04-30 19:28 51.03783 17.09891 3209 ft 186 kts 298°
2026-04-30 19:28 51.04865 17.06321 2720 ft 172 kts 299°
2026-04-30 19:29 51.05861 17.03045 2279 ft 163 kts 298°
2026-04-30 19:29 51.06350 17.01436 2043 ft 158 kts 298°
2026-04-30 19:30 51.07682 16.97058 1446 ft 142 kts 298°
2026-04-30 19:30 51.08526 16.94239 1114 ft 140 kts 297°
2026-04-30 19:31 51.09399 16.91427 702 ft 142 kts 296°
2026-04-30 19:31 51.09823 16.90023 505 ft 140 kts 295°
2026-04-30 19:31 51.10536 16.87697 410 ft 78 kts 296°
2026-04-30 19:32 51.10672 16.87266 408 ft 21 kts 312°
2026-04-30 19:32 51.10753 16.87274 410 ft 11 kts 25°
2026-04-30 19:32 51.10822 16.87325 409 ft 11 kts 25°
2026-04-30 19:32 51.10890 16.87376 408 ft 11 kts 25°
2026-04-30 19:33 51.10950 16.87439 411 ft 10 kts 56°
2026-04-30 19:33 51.10928 16.87545 411 ft 12 kts 117°
2026-04-30 19:33 51.10888 16.87671 411 ft 13 kts 117°
2026-04-30 19:33 51.10850 16.87799 411 ft 13 kts 115°
2026-04-30 19:34 51.10818 16.87904 408 ft 7 kts 101°
2026-04-30 19:34 51.10833 16.87941 411 ft 3 kts 57°
2026-04-30 19:34 51.10873 16.87994 411 ft 0 kts 27°